Weather History for KONO - June, 2013

Change the Weather History Date:

Wednesday, June 12, 2013

  Actual Average Record
Temperature  
Mean Temperature 69 °F 67 °F  
Max Temperature 83 °F 82 °F 102 °F (1959)
Min Temperature 55 °F 51 °F 36 °F (1993)
Degree Days  
Heating Degree Days 0 2  
Month to date heating degree days 1 31  
Since 1 June heating degree days 1 31  
Since 1 July heating degree days 5652 5981  
Cooling Degree Days 4 4  
Month to date cooling degree days 88 36  
Year to date cooling degree days 135 72  
Since 1 June cooling degree days 88 36  
Growing Degree Days 18 (Base 50)    
Moisture  
Dew Point 34 °F    
Average Humidity 30    
Maximum Humidity 43    
Minimum Humidity 17    
Precipitation  
Precipitation 0.00 in 0.03 in 0.22 in (1964)
Month to date precipitation T 0.37  
Year to date precipitation 1.94 5.44  
Sea Level Pressure  
Sea Level Pressure 29.90 in    
Wind  
Wind Speed 15 mph (NW)    
Max Wind Speed 29 mph    
Max Gust Speed 38 mph    
Visibility 10 miles    
Events      
T = Trace of Precipitation, MM = Missing Value Source: NWS Daily Summary

Daily Weather History Graph

Daily Weather History Graph

Search for Another Location

Airport or City:

Trip Planner

Search our weather history database for the weather conditions in past years. The results will help you decide how hot, cold, wet, or windy it might be!

Date:

Astronomy

Jun. 12, 2013 Rise Set
Actual Time 6:04 AM MDT 9:31 PM MDT
Civil Twilight 5:28 AM MDT 10:07 PM MDT
Nautical Twilight 4:41 AM MDT 10:55 PM MDT
Astronomical Twilight 3:40 AM MDT 11:55 PM MDT
Moon 9:54 AM MDT (6/12) No Moon Set
Length of Visible Light 16h 39m
Length of Day
15h 26m
Waxing Crescent, 14% of the Moon is Illuminated
Jun 12
Waxing Crescent
Jun 16
First Quarter
Jun 23
Full
Jun 29
Last Quarter
Jul 8
New

Hourly Weather History & Observations

Time (MDT) Temp. Dew Point Humidity Pressure Visibility Wind Dir Wind Speed Gust Speed Precip Events Conditions
12:53 AM 61.0 °F 33.1 °F 35% 29.87 in 10.0 mi NW 21.9 mph 32.2 mph N/A   Clear
1:53 AM 60.1 °F 33.1 °F 36% 29.88 in 10.0 mi NW 24.2 mph 33.4 mph N/A   Clear
2:53 AM 57.9 °F 34.0 °F 41% 29.89 in 10.0 mi NW 26.5 mph 38.0 mph N/A   Clear
3:53 AM 57.0 °F 34.0 °F 42% 29.91 in 10.0 mi NW 21.9 mph 33.4 mph N/A   Clear
4:53 AM 55.9 °F 34.0 °F 44% 29.92 in 10.0 mi West 11.5 mph - N/A   Clear
5:53 AM 55.0 °F 33.1 °F 43% 29.92 in 10.0 mi WNW 12.7 mph 21.9 mph N/A   Clear
6:53 AM 55.0 °F 34.0 °F 45% 29.94 in 10.0 mi WNW 17.3 mph 24.2 mph N/A   Clear
7:53 AM 55.9 °F 34.0 °F 44% 29.96 in 10.0 mi NW 18.4 mph 25.3 mph N/A   Clear
8:53 AM 61.0 °F 35.1 °F 38% 29.97 in 10.0 mi WNW 20.7 mph 24.2 mph N/A   Clear
9:53 AM 66.0 °F 34.0 °F 30% 29.98 in 10.0 mi NNW 13.8 mph - N/A   Clear
10:53 AM 68.0 °F 35.1 °F 30% 29.97 in 10.0 mi Variable 5.8 mph - N/A   Clear
11:53 AM 71.1 °F 36.0 °F 28% 29.96 in 10.0 mi Variable 5.8 mph - N/A   Clear
12:53 PM 73.0 °F 36.0 °F 26% 29.95 in 10.0 mi Variable 4.6 mph - N/A   Clear
1:53 PM 77.0 °F 35.1 °F 22% 29.93 in 10.0 mi NW 11.5 mph - N/A   Clear
2:53 PM 79.0 °F 30.9 °F 17% 29.91 in 10.0 mi Calm Calm - N/A   Clear
3:53 PM 80.1 °F 32.0 °F 17% 29.87 in 10.0 mi NW 5.8 mph - N/A   Clear
4:53 PM 80.1 °F 34.0 °F 19% 29.85 in 10.0 mi NNE 8.1 mph - N/A   Clear
5:53 PM 81.0 °F 34.0 °F 18% 29.82 in 10.0 mi NE 9.2 mph 16.1 mph N/A   Clear
6:18 PM 80.6 °F 30.2 °F 16% 29.85 in 10.0 mi NNW 9.2 mph 23.0 mph N/A   Clear
6:53 PM 79.0 °F 33.1 °F 19% 29.82 in 10.0 mi North 10.4 mph - N/A   Clear
7:53 PM 73.9 °F 35.1 °F 24% 29.84 in 10.0 mi NW 23.0 mph 31.1 mph N/A   Clear
8:53 PM 71.1 °F 35.1 °F 27% 29.87 in 10.0 mi NW 23.0 mph 32.2 mph N/A   Overcast
9:53 PM 68.0 °F 34.0 °F 28% 29.86 in 10.0 mi NW 23.0 mph 32.2 mph N/A   Clear
10:53 PM 66.9 °F 30.9 °F 26% 29.90 in 10.0 mi NW 26.5 mph 36.8 mph N/A   Mostly Cloudy
11:53 PM 64.9 °F 30.9 °F 28% 29.94 in 10.0 mi NW 11.5 mph 23.0 mph N/A   Scattered Clouds